STARLINK-2006 (47601 NORAD) Tracking and Keplerian Element Data

This shows tracking and keplerian element data for the satellite.

Feedback or suggestion? Click here.




ElementValue
Catalog47601
NameSTARLINK-2006
Epoch Orbit177
Epoch Day101.91668981
Epoch Year2021
RAAN157.5158
Inclination53.0521
Eccentricity0.0003539
Argument of Perigee10.3847
Mean Anonmoly247.9395
Mean Motion15.62838467
Decay Rate-0.00083572
L11 47601U 21009BF 21101.91668981 -.00083572 00000-0 -91288-3 0 9991
L22 47601 53.0521 157.5158 0003539 10.3847 247.9395 15.62838467 1775

Live tracking and technical data element details for STARLINK-2006 (NORAD 47601). STARLINK-2006 can be tracked NOW for your location showing map with azimuth and elevation plus other details from your city location.

Track the satellite on the map from your city or location and see movement details for azimuth, elevation, latitude, longitude, range, height, and movement on the map or in text.







IsCatalogInMostPopularTable: catalog: 47601, numindb: 14
Update: records affected: 1



GetName: 47601 STARLINK-2006

Hit Count: updated at: Tue, 13 Apr 2021 04:59:49 GMT